This demonstration page uses our WeatherBlox Daily Observations layout. Learn more.

41.55636, -103.73856

Hourly Observations for October 17, 2016

Temp ( °F °C ) Dew Point ( °F °C ) Humidity (%) Winds ( mph kmh ) Pressure ( in mb ) Visibility ( mi km ) Precip ( " mm )
12:53 am 00:53 Clear 47 8.3 33 0.6 59 59 Calm 29.56 1001 10 16.0934 0 0
1:53 am 01:53 Clear 42 5.6 31 -0.6 65 65 NNE 5 7 29.55 1001 10 16.0934 0 0
2:53 am 02:53 Clear 42 5.6 30 -1.1 62 62 ENE 3 6 29.52 1000 10 16.0934 0 0
3:53 am 03:53 Clear 37 2.8 31 -0.6 79 79 undefined N/A 29.5 999 10 16.0934 0 0
4:53 am 04:53 Clear 36 2.2 30 -1.1 79 79 N 3 6 29.49 999 10 16.0934 0 0
5:53 am 05:53 Clear 36 2.2 29 -1.7 76 76 undefined N/A 29.48 998 10 16.0934 0 0
6:53 am 06:53 Clear 37 2.8 29 -1.7 73 73 NNE 5 7 29.47 998 10 16.0934 0 0
7:53 am 07:53 Sunny 41 5 32 0 70 70 VRB 3 6 29.46 998 10 16.0934 0 0
8:53 am 08:53 Sunny 48 8.9 33 0.6 56 56 ESE 3 6 29.45 997 10 16.0934 0 0
9:53 am 09:53 Sunny 54 12.2 33 0.6 45 45 S 8 13 29.52 1000 10 16.0934 0 0
10:53 am 10:53 Sunny 63 17.2 35 1.7 35 35 W 16 26 29.46 998 10 16.0934 0 0
11:53 am 11:53 Sunny 69 20.6 35 1.7 29 29 WNW 18 30 29.45 997 10 16.0934 0 0
12:53 pm 12:53 Cloudy with Haze 64 17.8 34 1.1 33 33 WNW 36 57 29.51 999 5 8.0467 0 0
1:39 pm 13:39 Partly Cloudy 65 18.3 32 0 29 29 W 37 59 29.38 995 8 12.87472 0 0
1:53 pm 13:53 Sunny 64 17.8 31 -0.6 29 29 W 41 67 29.53 1000 8 12.87472 0 0
2:11 pm 14:11 Mostly Cloudy 63 17.2 31 -0.6 30 30 W 35 56 29.44 997 7 11.26538 0 0
2:22 pm 14:22 Partly Cloudy 64 18 28 -2 26 26 W 35 56 29.47 998 9 14.48406 0 0
2:53 pm 14:53 Mostly Sunny 65 18.3 27 -2.8 24 24 W 28 44 29.55 1001 10 16.0934 0 0
3:53 pm 15:53 Sunny 62 16.7 27 -2.8 26 26 W 33 54 29.6 1002 10 16.0934 0 0
4:53 pm 16:53 Sunny 62 16.7 28 -2.2 28 28 W 32 52 29.62 1003 10 16.0934 0 0
5:53 pm 17:53 Sunny 59 15 28 -2.2 31 31 W 30 48 29.66 1004 10 16.0934 0 0
6:53 pm 18:53 Clear 58 14.4 25 -3.9 28 28 W 21 33 29.71 1006 10 16.0934 0 0
7:53 pm 19:53 Clear 57 13.9 24 -4.4 28 28 WNW 31 50 29.75 1007 10 16.0934 0 0
8:53 pm 20:53 Clear 56 13.3 23 -5 28 28 W 26 43 29.78 1008 10 16.0934 0 0
9:53 pm 21:53 Clear 52 11.1 23 -5 32 32 WNW 15 24 29.8 1009 10 16.0934 0 0
10:53 pm 22:53 Clear 48 8.9 22 -5.6 36 36 NNW 7 11 29.82 1010 10 16.0934 0 0
11:53 pm 23:53 Clear 45 7.2 31 -0.6 58 58 NW 13 20 29.8 1009 10 16.0934 0 0

Powered by AerisWeather